{"data":{"norad_id":49008,"intl_designator":"2021-062A","name":"FENGYUN 3E","alt_names":[],"object_type":"PAYLOAD","status":"ACTIVE","operator":null,"country":"PRC","launch_date":"2021-07-04","launch_site_code":"JSC","launch_vehicle":null,"mission":null,"orbit_class":"UNKNOWN","rcs_meters":null,"size_class":null,"mass_kg":null,"dimensions":null,"purposes":["earth_obs"],"wikipedia_slug":null,"has_3d_model":false,"image_url":null,"decayed_at":null,"tle_current":{"epoch":"2026-05-25T03:48:56.743776Z","epoch_age_seconds":54617,"freshness":"FRESH","line1":"1 49008U 21062A   26145.15899009 -.00000108  00000+0 -30097-4 0  9994","line2":"2 49008  98.7500 148.8244 0002319 125.1222 235.0172 14.19901245253313","mean_motion":14.19901245,"eccentricity":0.0002319,"inclination_deg":98.75,"raan_deg":148.8244,"arg_perigee_deg":125.1222,"mean_anomaly_deg":235.0172,"bstar":-3.0097e-5,"rev_number":25331,"period_min":101.41550372399,"perigee_km":824.01622603207,"apogee_km":827.35735950716,"semimajor_km":7203.8237927696,"source":"CELESTRAK","updated_at":"2026-05-25T13:38:12.251438Z"}}}